World > North America > United States > Ohio

Norton, Ohio Regional Weather

Lat: 41.03N, Lon: 81.65W
Wx Zone: OHZ021Web Search
Norton Weather Warning NWS WEATHER ALERT FOR THE NORTON, OH AREA - HARD FROST ADVISORY Issued: 310 PM EDT Sun May 9 2021 Norton Weather Warning  

Pass this page to a friend. Tell them to point their camera at the QR Code near the bottom of this page.

Feedback


°F Click to change Norton hourly weather to Imperial units.Click to change Norton hourly weather to Metric units. °C
Norton Weather Map
UTC Time: 5/9/2021, 23:25
Your Time:

Norton, OH Regional Weather

Expires:202105100000;;863348
ASUS41 KCLE 092312
RWRCLE
OHIO REGIONAL WEATHER ROUNDUP
NATIONAL WEATHER SERVICE WILMINGTON, OH
700 PM EDT SUN MAY 09 2021

NOTE: "FAIR" INDICATES FEW OR NO CLOUDS BELOW 12,000 FEET WITH NO
SIGNIFICANT WEATHER AND/OR OBSTRUCTIONS TO VISIBILITY.


OHZ009>014-019>023-028>033-038-089-100000-
   NORTHEAST OHIO
  
CITY           SKY/WX    TMP DP  RH WIND       PRES   REMARKS
CLE-HOPKINS    LGT RAIN  41  37  86 NE17G28   29.81S FOG              
CLE-LAKEFRONT  LGT RAIN  44  39  82 NE15G28   29.82S                  
CUY CO. ARPT   LGT RAIN  39  37  93 NE12      29.83R                  
LORAIN-ELYRIA  LGT RAIN  41  38  89 NE15      29.83R                  
ASHTABULA      LGT RAIN  40  38  93 VRB7      29.83R                  
AKRON-CANTON   LGT RAIN  38  35  89 N17       29.76R                  
WOOSTER        RAIN      38  32  79 N12G22    29.78R                  
MANSFIELD      LGT RAIN  40  37  89 N20G28    29.77R                  
YOUNGSTOWN     LGT RAIN  38  35  89 NE13      29.76R                  
$$
 

SKY/WX - Weather  TMP - Temperature  DP - Dew Point  RH - Relative Humidity
WIND - Wind Direction/Speed PRES - Barometric Pressure VSB - Visibility
WCI - Wind Chill Index E13G22 Wind - East Wind 13 mph/Gusts of 22 mph